Japanese version Home page |
Updated on June 11, 2016 |
Profile
|
Orbital ElementsEpoch 2013 Aug. 16.0 TT = JDT 2456520.5 T 2013 Aug. 2.50732 TT MPC q 2.0977095 (2000.0) P Q n 0.13840179 Peri. 237.99713 -0.28557816 +0.95785078 a 3.7014757 Node 15.50147 -0.83535296 -0.23289035 e 0.4332775 Incl. 6.68162 -0.46971325 -0.16817840 P 7.12 From 125 observations 2006 May 22-2013 Apr. 22, mean residual 0".5.
|
Magnitudes Graphm1 = 14.5 + 5 log d + 10.0 log r
|
The orbital elements are published on M.P.E.C. 2013-H38.
|